Regional Weather Roundup
Issued by NWS

Home | Current Version | Previous Version | Text Only | Print | Product List | Glossary Off
Versions: 1 2 3 4 5 6 7 8 9 10 11 12 13 14 15 16 17 18 19 20 21 22 23 24 25 26 27 28 29 30 31 32 33 34 35 36 37 38 39 40 41 42 43 44 45 46 47 48 49 50

000
ASUS43 KLOT 240709
RWRIL

ILLINOIS REGIONAL WEATHER ROUNDUP
NATIONAL WEATHER SERVICE CHICAGO/ROMEOVILLE IL
200 AM CDT MON JUL 24 2017

NOTE: "FAIR" INDICATES FEW OR NO CLOUDS BELOW 12,000 FEET WITH NO
SIGNIFICANT WEATHER AND/OR OBSTRUCTIONS TO VISIBILITY.

* THESE STATIONS ARE NOT UNDER NWS QUALITY CONTROL. THEY ALSO MAY NOT
  REPORT WEATHER SUCH AS PRECIPITATION OR FOG.

ILZ001-002-007-009-015-016-024-240800-
NORTHWEST ILLINOIS

CITY           SKY/WX    TMP DP  RH WIND       PRES   REMARKS
MOLINE         CLEAR     69  61  75 CALM      29.92S
STERLING*      CLEAR     68  63  84 N6        29.92S
SAVANNA*       CLEAR     67  62  84 N5        29.93R
$$

ILZ003-004-008-010-011-017-018-240800-
NORTH CENTRAL ILLINOIS

CITY           SKY/WX    TMP DP  RH WIND       PRES   REMARKS
ROCKFORD       CLOUDY    69  63  81 E9        29.94R
FREEPORT*      MOCLDY    65  63  94 CALM      29.96R
ROCHELLE*      CLOUDY    67  66  97 NE9       29.93R
DE KALB*       CLOUDY    66  65  94 NE7       29.93S
PERU*          CLEAR     63  57  82 NW7       29.90S
$$

ILZ005-006-012>014-019>023-240800-
NORTHEAST ILLINOIS

CITY           SKY/WX    TMP DP  RH WIND       PRES   REMARKS
CHICAGO-OHARE  MOCLDY    69  61  75 NE15      29.91R
CHICAGO-MIDWAY MOCLDY    70  64  81 N9        29.90S
AURORA         PTCLDY    68  65  90 NE10      29.91S
LANSING*       CLOUDY    70  63  78 N9        29.91R
JOLIET*        PTCLDY    69  68  96 NE6       29.90S
WAUKEGAN       MOCLDY    66  62  87 N7        29.93R
DUPAGE AIRPORT MOCLDY    67  66  97 NE7       29.91S
WHEELING       CLOUDY    68  64  87 N10       29.93S
MORRIS*        CLEAR     66  65  95 CALM      29.89S
ROMEOVILLE*    PTCLDY    68  63  85 NE7       29.91R
NORTHERLY ISL    N/A     69  62  78 MISG        N/A
$$

LMZ740>746-240800-
SOUTHERN LAKE MICHIGAN

STATION/POSITION SKY/WX   TEMP    WIND        PRES    VSBY  WAVE
                          AIR SEA DIR/SP/G                  HT/PER
                          (F)     (DEG/KT/KT) (MB)    (MI)  (FT/S)
SOUTHERN BUOY              67 70   10/ 19/ 21 1011.8          4/ 5
WILMETTE HARBOR            69 73  360/ 17/ 21   N/A           5/ 4
HARRISON CRIB              70     360/ 16/ 18   N/A
BURNHAM HARBOR             68                   N/A
CALUMET HARBOR             69     350/  8/ 14 1012.4S
BURNS HARBOR               71      10/ 14/ 20 1012.9R
MICHIGAN CITY              70     360/ 16/ 17   N/A
MICHIGAN CITY 6N           70 75   10/ 14/ 19   N/A           4/ 4
ST. JOSEPH                 70 75   30/ 16/ 19 1011.8          5/ 5
$$

ILZ025>027-034>036-040-047-049-050-058-095>099-240800-
WEST-CENTRAL ILLINOIS

CITY           SKY/WX    TMP DP  RH WIND       PRES   REMARKS
QUINCY         PTCLDY    69  63  81 N6        29.93S
GALESBURG*     CLEAR     64  61  91 CALM      29.94S
MACOMB*        CLEAR     64  63  94 NW5       29.95S
JACKSONVILLE*  MOCLDY    67  64  89 NW3       29.92S
PITTSFIELD*    CLEAR     72  65  79 N6        29.93S
$$

ILZ028>032-037-038-041>044-048-051>054-059>061-240800-
CENTRAL ILLINOIS

CITY           SKY/WX    TMP DP  RH WIND       PRES   REMARKS
PONTIAC        CLEAR     67  67  99 CALM      29.90S
BLOOMINGTON    CLEAR     68  64  87 NW5       29.91S
DECATUR        PTCLDY    73  66  78 NW9       29.90S
PEORIA         PTCLDY    69  65  86 NW5       29.91S
LACON*         CLEAR     68  65  91 CALM      29.90S
LINCOLN*       CLEAR     71  67  85 CALM      29.90S
SPRINGFIELD    CLEAR     71  68  90 W3        29.91S
TAYLORVILLE    PTCLDY    70  68  94 CALM      29.90S
$$

ILZ033-039-045-046-055>057-062-063-240800-
EAST-CENTRAL ILLINOIS

CITY           SKY/WX    TMP DP  RH WIND       PRES   REMARKS
CHAMPAIGN      PTCLDY    67  65  93 W5        29.89S
RANTOUL*       CLEAR     69  68  96 NW7       29.89R
MATTOON        CLEAR     71  71 100 W6        29.88S
PARIS*         PTCLDY    68  68  98 NW6       29.88S
$$

ILZ079-100>102-240800-
SOUTHWEST ILLINOIS

CITY           SKY/WX    TMP DP  RH WIND       PRES   REMARKS
ALTON          CLEAR     73  71  94 CALM      29.90F
BELLEVILLE     PTCLDY    74  71  87 CALM      29.90S HAZE
CAHOKIA*       CLEAR     75  69  81 CALM      29.89S
SPARTA*        CLEAR     74  71  88 CALM      29.90F
$$

ILZ064>066-069>071-074>076-080>082-084>086-088>090-092>094-240800-
SOUTH-CENTRAL ILLINOIS

CITY           SKY/WX    TMP DP  RH WIND       PRES   REMARKS
CARBONDALE     PTCLDY    74  73  97 CALM      29.89F
CAIRO*         CLEAR     76  71  84 SW7       29.89F
EFFINGHAM*     PTCLDY    74  74  99 W5        29.90S
MARION         PTCLDY    75  75 100 CALM      29.90F
MT. VERNON     CLEAR     71  70  96 CALM      29.89S
CENTRALIA*     PTCLDY    72  71  97 CALM      29.89S
SALEM*         PTCLDY    74  71  91 CALM      29.89F
METROPOLIS*    CLEAR     76  73  90 CALM      29.90F
$$

ILZ067-068-072-073-078-083-087-091-240800-
SOUTHEAST ILLINOIS

CITY           SKY/WX    TMP DP  RH WIND       PRES   REMARKS
LAWRENCEVILLE  CLEAR     73  71  93 SE3       29.87S
FLORA*         CLEAR     76  71  83 NW6       29.88F
FAIRFIELD*     PTCLDY    73  72  97 CALM      29.87S
HARRISBURG*    PTCLDY    69  69  99 CALM      29.90S
ROBINSON*      PTCLDY    69  69  98 NW3       29.88R
CARMI*         CLEAR     72  70  95 SW5       29.88R
$$

ABBREVIATIONS USED IN REMARKS
   TC - TEMPERATURE IN CELSIUS
  WCI - WIND CHILL INDEX
   HX - HEAT INDEX
  VSB - VISIBILITY
$$




USA.gov is the U.S. government's official web portal to all federal, state and local government web resources and services.